Overview Statistics Trail Chart Weather Telemetry Raw packets
 

This is the latest recevied weather packets stored in our database for station/object K7FLA. If no packets are shown the sender has not sent any weather packets the latest 10 day(s).

<< 19 20 21 22 23 24 25 >>
Time Temp. Humidity Pressure Rain* Wind** Luminosity Snow
1788541148 27.78° C 38% 1095.4 hPa 0 mm - 560 W/m² -
1788540848 27.78° C 37% 1095.4 hPa 0 mm - 544 W/m² -
1788540547 27.78° C 38% 1095.1 hPa 0 mm - 525 W/m² -
1788540246 27.78° C 38% 1095.3 hPa 0 mm - 511 W/m² -
1788539943 27.22° C 40% 1095.2 hPa 0 mm - 492 W/m² -
1788539642 27.22° C 40% 1094.9 hPa 0 mm - 476 W/m² -
1788539342 27.22° C 40% 1095 hPa 0 mm - 459 W/m² -
1788539037 27.22° C 41% 1095 hPa 0 mm - 443 W/m² -
1788538733 26.67° C 41% 1094.9 hPa 0 mm - 425 W/m² -
1788538428 26.67° C 41% 1094.6 hPa 0 mm - 408 W/m² -
1788538123 26.67° C 41% 1094.7 hPa 0 mm - 391 W/m² -
1788537818 26.67° C 42% 1094.7 hPa 0 mm - 376 W/m² -
1788537513 26.67° C 45% 1094.6 hPa 0 mm - 355 W/m² -
1788537208 26.11° C 45% 1094.7 hPa 0 mm - 337 W/m² -
1788536906 25.56° C 46% 1094.7 hPa 0 mm - 323 W/m² -
1788536601 25.56° C 45% 1094.7 hPa 0 mm - 306 W/m² -
1788536297 25.56° C 47% 1094.8 hPa 0 mm - 290 W/m² -
1788535992 25° C 48% 1094.6 hPa 0 mm - 273 W/m² -
1788535689 24.44° C 50% 1094.7 hPa 0 mm - 257 W/m² -
1788535378 23.89° C 49% 1094.8 hPa 0 mm - 241 W/m² -
1788535073 23.89° C 52% 1094.7 hPa 0 mm - 225 W/m² -
1788534771 23.33° C 53% 1094.5 hPa 0 mm - 208 W/m² -
1788534468 22.78° C 54% 1094.6 hPa 0 mm - 192 W/m² -
1788534162 22.22° C 55% 1094.6 hPa 0 mm - 177 W/m² -
1788533860 21.67° C 57% 1094.8 hPa 0 mm - 162 W/m² -

* Rain latest hour (hover to see other rain measurements)
** Current wind speed in m/s (hover to see current wind gust speed)